Year,Month,Day,Hour,Minute,Value (Times are PST for temperature in C)
2018,09,23,00,00,12.40
2018,09,23,00,01,12.40
2018,09,23,00,02,12.40
2018,09,23,00,03,12.40
2018,09,23,00,04,12.40
2018,09,23,00,05,12.40
2018,09,23,00,06,12.40
2018,09,23,00,07,12.40
2018,09,23,00,08,12.40
2018,09,23,00,09,12.40
2018,09,23,00,10,12.40
2018,09,23,00,11,12.40
2018,09,23,00,12,12.40
2018,09,23,00,13,12.40
2018,09,23,00,14,12.30
2018,09,23,00,15,12.30
2018,09,23,00,16,12.30
2018,09,23,00,17,12.30
2018,09,23,00,18,12.30
2018,09,23,00,19,12.30
2018,09,23,00,20,12.30
2018,09,23,00,21,12.30
2018,09,23,00,22,12.30
2018,09,23,00,23,12.30
2018,09,23,00,24,12.30
2018,09,23,00,25,12.30
2018,09,23,00,26,12.30
2018,09,23,00,27,12.30
2018,09,23,00,28,12.30
2018,09,23,00,29,12.30
2018,09,23,00,30,12.20
2018,09,23,00,31,12.20
2018,09,23,00,32,12.20
2018,09,23,00,33,12.20
2018,09,23,00,34,12.20
2018,09,23,00,35,12.20
2018,09,23,00,36,12.20
2018,09,23,00,37,12.20
2018,09,23,00,38,12.20
2018,09,23,00,39,12.20
2018,09,23,00,40,12.20
2018,09,23,00,41,12.20
2018,09,23,00,42,12.20
2018,09,23,00,43,12.20
2018,09,23,00,44,12.20
2018,09,23,00,45,12.20
2018,09,23,00,46,12.20
2018,09,23,00,47,12.20
2018,09,23,00,48,12.20
2018,09,23,00,49,12.20
2018,09,23,00,50,12.20
2018,09,23,00,51,12.20
2018,09,23,00,52,12.10
2018,09,23,00,53,12.10
2018,09,23,00,54,12.10
2018,09,23,00,55,12.10
2018,09,23,00,56,12.10
2018,09,23,00,57,12.10
2018,09,23,00,58,12.10
2018,09,23,00,59,12.10
2018,09,23,01,00,12.00
2018,09,23,01,01,12.00
2018,09,23,01,02,12.00
2018,09,23,01,03,12.00
2018,09,23,01,04,12.00
2018,09,23,01,05,12.00
2018,09,23,01,06,11.90
2018,09,23,01,07,11.90
2018,09,23,01,08,11.90
2018,09,23,01,09,11.90
2018,09,23,01,10,11.90
2018,09,23,01,11,11.90
2018,09,23,01,12,11.90
2018,09,23,01,13,11.90
2018,09,23,01,14,11.90
2018,09,23,01,15,11.80
2018,09,23,01,16,11.80
2018,09,23,01,17,11.80
2018,09,23,01,18,11.80
2018,09,23,01,19,11.80
2018,09,23,01,20,11.80
2018,09,23,01,21,11.80
2018,09,23,01,22,11.80
2018,09,23,01,23,11.80
2018,09,23,01,24,11.80
2018,09,23,01,25,11.80
2018,09,23,01,26,11.80
2018,09,23,01,27,11.80
2018,09,23,01,28,11.80
2018,09,23,01,29,11.80
2018,09,23,01,30,11.80
2018,09,23,01,31,11.80
2018,09,23,01,32,11.80
2018,09,23,01,33,11.80
2018,09,23,01,34,11.80
2018,09,23,01,35,11.70
2018,09,23,01,36,11.70
2018,09,23,01,37,11.70
2018,09,23,01,38,11.70
2018,09,23,01,39,11.70
2018,09,23,01,40,11.70
2018,09,23,01,41,11.70
2018,09,23,01,42,11.70
2018,09,23,01,43,11.70
2018,09,23,01,44,11.70
2018,09,23,01,45,11.70
2018,09,23,01,46,11.70
2018,09,23,01,47,11.70
2018,09,23,01,48,11.70
2018,09,23,01,49,11.70
2018,09,23,01,50,11.70
2018,09,23,01,51,11.70
2018,09,23,01,52,11.70
2018,09,23,01,53,11.70
2018,09,23,01,54,11.70
2018,09,23,01,55,11.70
2018,09,23,01,56,11.70
2018,09,23,01,57,11.70
2018,09,23,01,58,11.70
2018,09,23,01,59,11.70
2018,09,23,02,00,11.70
2018,09,23,02,01,11.70
2018,09,23,02,02,11.70
2018,09,23,02,03,11.70
2018,09,23,02,04,11.60
2018,09,23,02,05,11.70
2018,09,23,02,06,11.60
2018,09,23,02,07,11.60
2018,09,23,02,08,11.60
2018,09,23,02,09,11.60
2018,09,23,02,10,11.60
2018,09,23,02,11,11.60
2018,09,23,02,12,11.60
2018,09,23,02,13,11.60
2018,09,23,02,14,11.50
2018,09,23,02,15,11.50
2018,09,23,02,16,11.50
2018,09,23,02,17,11.50
2018,09,23,02,18,11.50
2018,09,23,02,19,11.50
2018,09,23,02,20,11.50
2018,09,23,02,21,11.40
2018,09,23,02,22,11.40
2018,09,23,02,23,11.40
2018,09,23,02,24,11.40
2018,09,23,02,25,11.40
2018,09,23,02,26,11.40
2018,09,23,02,27,11.40
2018,09,23,02,28,11.40
2018,09,23,02,29,11.40
2018,09,23,02,30,11.40
2018,09,23,02,31,11.40
2018,09,23,02,32,11.40
2018,09,23,02,33,11.40
2018,09,23,02,34,11.30
2018,09,23,02,35,11.40
2018,09,23,02,36,11.30
2018,09,23,02,37,11.30
2018,09,23,02,38,11.30
2018,09,23,02,39,11.30
2018,09,23,02,40,11.30
2018,09,23,02,41,11.30
2018,09,23,02,42,11.30
2018,09,23,02,43,11.30
2018,09,23,02,44,11.30
2018,09,23,02,45,11.30
2018,09,23,02,46,11.20
2018,09,23,02,47,11.20
2018,09,23,02,48,11.20
2018,09,23,02,49,11.20
2018,09,23,02,50,11.20
2018,09,23,02,51,11.20
2018,09,23,02,52,11.20
2018,09,23,02,53,11.20
2018,09,23,02,54,11.20
2018,09,23,02,55,11.20
2018,09,23,02,56,11.20
2018,09,23,02,57,11.20
2018,09,23,02,58,11.20
2018,09,23,02,59,11.20
2018,09,23,03,00,11.20
2018,09,23,03,01,11.20
2018,09,23,03,02,11.20
2018,09,23,03,03,11.20
2018,09,23,03,04,11.20
2018,09,23,03,05,11.20
2018,09,23,03,06,11.20
2018,09,23,03,07,11.20
2018,09,23,03,08,11.20
2018,09,23,03,09,11.20
2018,09,23,03,10,11.20
2018,09,23,03,11,11.20
2018,09,23,03,12,11.20
2018,09,23,03,13,11.20
2018,09,23,03,14,11.20
2018,09,23,03,15,11.20
2018,09,23,03,16,11.20
2018,09,23,03,17,11.20
2018,09,23,03,18,11.20
2018,09,23,03,19,11.10
2018,09,23,03,20,11.10
2018,09,23,03,21,11.10
2018,09,23,03,22,11.10
2018,09,23,03,23,11.10
2018,09,23,03,24,11.10
2018,09,23,03,25,11.10
2018,09,23,03,26,11.10
2018,09,23,03,27,11.00
2018,09,23,03,28,11.00
2018,09,23,03,29,11.00
2018,09,23,03,30,11.00
2018,09,23,03,31,11.00
2018,09,23,03,32,10.90
2018,09,23,03,33,10.90
2018,09,23,03,34,10.90
2018,09,23,03,35,10.90
2018,09,23,03,36,10.90
2018,09,23,03,37,10.90
2018,09,23,03,38,10.90
2018,09,23,03,39,10.90
2018,09,23,03,40,10.90
2018,09,23,03,41,10.90
2018,09,23,03,42,10.90
2018,09,23,03,43,10.90
2018,09,23,03,44,10.90
2018,09,23,03,45,10.90
2018,09,23,03,46,10.90
2018,09,23,03,47,10.90
2018,09,23,03,48,10.90
2018,09,23,03,49,10.90
2018,09,23,03,50,10.90
2018,09,23,03,51,10.90
2018,09,23,03,52,10.90
2018,09,23,03,53,10.90
2018,09,23,03,54,10.90
2018,09,23,03,55,10.90
2018,09,23,03,56,10.90
2018,09,23,03,57,10.90
2018,09,23,03,58,10.90
2018,09,23,03,59,10.90
2018,09,23,04,00,10.90
2018,09,23,04,01,10.90
2018,09,23,04,02,11.00
2018,09,23,04,03,11.00
2018,09,23,04,04,11.00
2018,09,23,04,05,11.00
2018,09,23,04,06,11.00
2018,09,23,04,07,10.90
2018,09,23,04,08,10.90
2018,09,23,04,09,10.90
2018,09,23,04,10,10.90
2018,09,23,04,11,10.90
2018,09,23,04,12,10.90
2018,09,23,04,13,10.90
2018,09,23,04,14,10.90
2018,09,23,04,15,10.90
2018,09,23,04,16,10.90
2018,09,23,04,17,10.90
2018,09,23,04,18,10.90
2018,09,23,04,19,10.90
2018,09,23,04,20,10.80
2018,09,23,04,21,10.80
2018,09,23,04,22,10.80
2018,09,23,04,23,10.80
2018,09,23,04,24,10.80
2018,09,23,04,25,10.80
2018,09,23,04,26,10.80
2018,09,23,04,27,10.80
2018,09,23,04,28,10.80
2018,09,23,04,29,10.80
2018,09,23,04,30,10.80
2018,09,23,04,31,10.80
2018,09,23,04,32,10.80
2018,09,23,04,33,10.80
2018,09,23,04,34,10.80
2018,09,23,04,35,10.80
2018,09,23,04,36,10.80
2018,09,23,04,37,10.80
2018,09,23,04,38,10.80
2018,09,23,04,39,10.80
2018,09,23,04,40,10.80
2018,09,23,04,41,10.80
2018,09,23,04,42,10.80
2018,09,23,04,43,10.80
2018,09,23,04,44,10.80
2018,09,23,04,45,10.80
2018,09,23,04,46,10.80
2018,09,23,04,47,10.80
2018,09,23,04,48,10.80
2018,09,23,04,49,10.80
2018,09,23,04,50,10.80
2018,09,23,04,51,10.80
2018,09,23,04,52,10.90
2018,09,23,04,53,10.90
2018,09,23,04,54,10.90
2018,09,23,04,55,10.90
2018,09,23,04,56,10.90
2018,09,23,04,57,10.90
2018,09,23,04,58,10.90
2018,09,23,04,59,10.80
2018,09,23,05,00,10.80
2018,09,23,05,01,10.80
2018,09,23,05,02,10.80
2018,09,23,05,03,10.80
2018,09,23,05,04,10.80
2018,09,23,05,05,10.80
2018,09,23,05,06,10.80
2018,09,23,05,07,10.80
2018,09,23,05,08,10.80
2018,09,23,05,09,10.80
2018,09,23,05,10,10.80
2018,09,23,05,11,10.80
2018,09,23,05,12,10.80
2018,09,23,05,13,10.80
2018,09,23,05,14,10.80
2018,09,23,05,15,10.80
2018,09,23,05,16,10.80
2018,09,23,05,17,10.80
2018,09,23,05,18,10.80
2018,09,23,05,19,10.80
2018,09,23,05,20,10.80
2018,09,23,05,21,10.80
2018,09,23,05,22,10.80
2018,09,23,05,23,10.80
2018,09,23,05,24,10.80
2018,09,23,05,25,10.80
2018,09,23,05,26,10.80
2018,09,23,05,27,10.80
2018,09,23,05,28,10.80
2018,09,23,05,29,10.90
2018,09,23,05,30,10.90
2018,09,23,05,31,10.90
2018,09,23,05,32,10.90
2018,09,23,05,33,10.90
2018,09,23,05,34,10.90
2018,09,23,05,35,10.90
2018,09,23,05,36,10.90
2018,09,23,05,37,10.90
2018,09,23,05,38,10.90
2018,09,23,05,39,10.90
2018,09,23,05,40,10.90
2018,09,23,05,41,10.90
2018,09,23,05,42,10.90
2018,09,23,05,43,10.90
2018,09,23,05,44,10.90
2018,09,23,05,45,10.90
2018,09,23,05,46,10.90
2018,09,23,05,47,10.90
2018,09,23,05,48,10.90
2018,09,23,05,49,10.80
2018,09,23,05,50,10.80
2018,09,23,05,51,10.80
2018,09,23,05,52,10.80
2018,09,23,05,53,10.80
2018,09,23,05,54,10.80
2018,09,23,05,55,10.80
2018,09,23,05,56,10.80
2018,09,23,05,57,10.80
2018,09,23,05,58,10.80
2018,09,23,05,59,10.80
2018,09,23,06,00,10.80
2018,09,23,06,01,10.80
2018,09,23,06,02,10.80
2018,09,23,06,03,10.90
2018,09,23,06,04,10.80
2018,09,23,06,05,10.80
2018,09,23,06,06,10.80
2018,09,23,06,07,10.80
2018,09,23,06,08,10.80
2018,09,23,06,09,10.80
2018,09,23,06,10,10.80
2018,09,23,06,11,10.80
2018,09,23,06,12,10.80
2018,09,23,06,13,10.80
2018,09,23,06,14,10.80
2018,09,23,06,15,10.80
2018,09,23,06,16,10.80
2018,09,23,06,17,10.80
2018,09,23,06,18,10.80
2018,09,23,06,19,10.80
2018,09,23,06,20,10.80
2018,09,23,06,21,10.80
2018,09,23,06,22,10.80
2018,09,23,06,23,10.80
2018,09,23,06,24,10.80
2018,09,23,06,25,10.80
2018,09,23,06,26,10.90
2018,09,23,06,27,10.90
2018,09,23,06,28,10.90
2018,09,23,06,29,10.90
2018,09,23,06,30,10.90
2018,09,23,06,31,10.90
2018,09,23,06,32,10.90
2018,09,23,06,33,10.90
2018,09,23,06,34,10.90
2018,09,23,06,35,10.90
2018,09,23,06,36,10.90
2018,09,23,06,37,10.90
2018,09,23,06,38,10.90
2018,09,23,06,39,10.90
2018,09,23,06,40,10.90
2018,09,23,06,41,10.90
2018,09,23,06,42,10.90
2018,09,23,06,43,10.90
2018,09,23,06,44,10.90
2018,09,23,06,45,10.90
2018,09,23,06,46,10.90
2018,09,23,06,47,11.00
2018,09,23,06,48,11.00
2018,09,23,06,49,11.00
2018,09,23,06,50,11.00
2018,09,23,06,51,11.00
2018,09,23,06,52,11.00
2018,09,23,06,53,11.00
2018,09,23,06,54,11.00
2018,09,23,06,55,11.00
2018,09,23,06,56,11.00
2018,09,23,06,57,11.10
2018,09,23,06,58,11.00
2018,09,23,06,59,11.00
2018,09,23,07,00,11.00
2018,09,23,07,01,11.00
2018,09,23,07,02,11.00
2018,09,23,07,03,11.10
2018,09,23,07,04,11.10
2018,09,23,07,05,11.10
2018,09,23,07,06,11.10
2018,09,23,07,07,11.10
2018,09,23,07,08,11.10
2018,09,23,07,09,11.10
2018,09,23,07,10,11.10
2018,09,23,07,11,11.10
2018,09,23,07,12,11.10
2018,09,23,07,13,11.10
2018,09,23,07,14,11.10
2018,09,23,07,15,11.10
2018,09,23,07,16,11.10
2018,09,23,07,17,11.10
2018,09,23,07,18,11.10
2018,09,23,07,19,11.10
2018,09,23,07,20,11.10
2018,09,23,07,21,11.10
2018,09,23,07,22,11.10
2018,09,23,07,23,11.10
2018,09,23,07,24,11.10
2018,09,23,07,25,11.10
2018,09,23,07,26,11.10
2018,09,23,09,33,13.00
2018,09,23,09,34,12.90
2018,09,23,09,35,12.90
2018,09,23,09,36,12.90
2018,09,23,09,37,12.90
2018,09,23,09,38,12.90
2018,09,23,09,39,12.90
2018,09,23,09,40,12.90
2018,09,23,09,41,12.90
2018,09,23,09,42,12.90
2018,09,23,09,43,13.00
2018,09,23,09,44,13.00
2018,09,23,09,45,13.00
2018,09,23,09,46,13.00
2018,09,23,09,47,13.00
2018,09,23,09,48,13.00
2018,09,23,09,49,13.00
2018,09,23,09,50,13.00
2018,09,23,09,51,13.00
2018,09,23,09,52,13.00
2018,09,23,09,53,13.00
2018,09,23,09,54,13.10
2018,09,23,09,55,13.10
2018,09,23,09,56,13.10
2018,09,23,09,57,13.10
2018,09,23,09,58,13.20
2018,09,23,09,59,13.20
2018,09,23,10,00,13.20
2018,09,23,10,01,13.20
2018,09,23,10,02,13.20
2018,09,23,10,03,13.30
2018,09,23,10,04,13.30
2018,09,23,10,05,13.30
2018,09,23,10,06,13.30
2018,09,23,10,07,13.30
2018,09,23,10,08,13.30
2018,09,23,10,09,13.30
2018,09,23,10,10,13.30
2018,09,23,10,11,13.30
2018,09,23,10,12,13.30
2018,09,23,10,13,13.30
2018,09,23,10,14,13.30
2018,09,23,10,15,13.30
2018,09,23,10,16,13.20
2018,09,23,10,17,13.30
2018,09,23,10,18,13.20
2018,09,23,10,19,13.30
2018,09,23,10,20,13.30
2018,09,23,10,21,13.30
2018,09,23,10,22,13.30
2018,09,23,10,23,13.30
2018,09,23,10,24,13.30
2018,09,23,10,25,13.30
2018,09,23,10,26,13.30
2018,09,23,10,27,13.20
2018,09,23,10,28,13.20
2018,09,23,10,29,13.20
2018,09,23,10,30,13.20
2018,09,23,10,31,13.20
2018,09,23,10,32,13.20
2018,09,23,10,33,13.20
2018,09,23,10,34,13.20
2018,09,23,10,35,13.20
2018,09,23,10,36,13.20
2018,09,23,10,37,13.20
2018,09,23,10,38,13.20
2018,09,23,10,39,13.20
2018,09,23,10,40,13.20
2018,09,23,10,41,13.30
2018,09,23,10,42,13.30
2018,09,23,10,43,13.30
2018,09,23,10,44,13.30
2018,09,23,10,45,13.30
2018,09,23,10,46,13.30
2018,09,23,10,47,13.30
2018,09,23,10,48,13.30
2018,09,23,10,49,13.40
2018,09,23,10,50,13.40
2018,09,23,10,51,13.40
2018,09,23,10,52,13.40
2018,09,23,10,53,13.40
2018,09,23,10,54,13.40
2018,09,23,10,55,13.40
2018,09,23,10,56,13.40
2018,09,23,10,57,13.40
2018,09,23,10,58,13.40
2018,09,23,10,59,13.50
2018,09,23,11,00,13.50
2018,09,23,11,01,13.50
2018,09,23,11,02,13.50
2018,09,23,11,03,13.60
2018,09,23,11,04,13.60
2018,09,23,11,05,13.60
2018,09,23,11,06,13.60
2018,09,23,11,07,13.70
2018,09,23,11,08,13.70
2018,09,23,11,09,13.70
2018,09,23,11,10,13.70
2018,09,23,11,11,13.70
2018,09,23,11,12,13.70
2018,09,23,11,13,13.60
2018,09,23,11,14,13.60
2018,09,23,11,15,13.60
2018,09,23,11,16,13.70
2018,09,23,11,17,13.70
2018,09,23,11,18,13.70
2018,09,23,11,19,13.70
2018,09,23,11,20,13.70
2018,09,23,11,21,13.70
2018,09,23,11,22,13.80
2018,09,23,11,23,13.80
2018,09,23,11,24,13.80
2018,09,23,11,25,13.80
2018,09,23,11,26,13.90
2018,09,23,11,27,13.90
2018,09,23,11,28,14.00
2018,09,23,11,29,14.00
2018,09,23,11,30,14.00
2018,09,23,11,31,14.10
2018,09,23,11,32,14.10
2018,09,23,11,33,14.10
2018,09,23,11,34,14.10
2018,09,23,11,35,14.10
2018,09,23,11,36,14.10
2018,09,23,11,37,14.10
2018,09,23,11,38,14.10
2018,09,23,11,39,14.10
2018,09,23,11,40,14.10
2018,09,23,11,41,14.10
2018,09,23,11,42,14.10
2018,09,23,11,43,14.00
2018,09,23,11,44,14.00
2018,09,23,11,45,13.90
2018,09,23,11,46,13.90
2018,09,23,11,47,13.90
2018,09,23,11,48,13.90
2018,09,23,11,49,13.90
2018,09,23,11,50,13.90
2018,09,23,11,51,13.90
2018,09,23,11,52,13.90
2018,09,23,11,53,13.90
2018,09,23,11,54,13.90
2018,09,23,11,55,13.90
2018,09,23,11,56,13.90
2018,09,23,11,57,13.90
2018,09,23,11,58,13.90
2018,09,23,11,59,13.90
2018,09,23,12,00,13.90
2018,09,23,12,01,13.90
2018,09,23,12,02,13.90
2018,09,23,12,03,13.90
2018,09,23,12,04,13.90
2018,09,23,12,05,13.90
2018,09,23,12,06,14.00
2018,09,23,12,07,13.90
2018,09,23,12,08,14.00
2018,09,23,12,09,13.90
2018,09,23,12,10,13.90
2018,09,23,12,11,13.90
2018,09,23,12,12,13.90
2018,09,23,12,13,13.90
2018,09,23,12,14,13.90
2018,09,23,12,15,13.90
2018,09,23,12,16,13.90
2018,09,23,12,17,13.90
2018,09,23,12,18,14.00
2018,09,23,12,19,14.00
2018,09,23,12,20,14.10
2018,09,23,12,21,14.20
2018,09,23,12,22,14.20
2018,09,23,12,23,14.30
2018,09,23,12,24,14.40
2018,09,23,12,25,14.40
2018,09,23,12,26,14.50
2018,09,23,12,27,14.60
2018,09,23,12,28,14.60
2018,09,23,12,29,14.70
2018,09,23,12,30,14.80
2018,09,23,12,31,14.80
2018,09,23,12,32,14.80
2018,09,23,12,33,14.80
2018,09,23,12,34,14.80
2018,09,23,12,35,14.90
2018,09,23,12,36,14.90
2018,09,23,12,37,14.90
2018,09,23,12,38,14.90
2018,09,23,12,39,14.90
2018,09,23,12,40,14.90
2018,09,23,12,41,15.00
2018,09,23,12,42,15.00
2018,09,23,12,43,15.00
2018,09,23,12,44,15.00
2018,09,23,12,45,15.00
2018,09,23,12,46,15.10
2018,09,23,12,47,15.10
2018,09,23,12,48,15.20
2018,09,23,12,49,15.20
2018,09,23,12,50,15.30
2018,09,23,12,51,15.30
2018,09,23,12,52,15.40
2018,09,23,12,53,15.40
2018,09,23,12,54,15.50
2018,09,23,12,55,15.70
2018,09,23,12,56,15.80
2018,09,23,12,57,15.80
2018,09,23,12,58,15.90
2018,09,23,12,59,16.00
2018,09,23,13,00,16.10
2018,09,23,13,01,16.10
2018,09,23,13,02,16.10
2018,09,23,13,03,16.20
2018,09,23,13,04,16.20
2018,09,23,13,05,16.30
2018,09,23,13,06,16.40
2018,09,23,13,07,16.50
2018,09,23,13,08,16.60
2018,09,23,13,09,16.70
2018,09,23,13,10,16.80
2018,09,23,13,11,16.90
2018,09,23,13,12,16.90
2018,09,23,13,13,17.00
2018,09,23,13,14,17.00
2018,09,23,13,15,17.00
2018,09,23,13,16,17.00
2018,09,23,13,17,17.00
2018,09,23,13,18,16.90
2018,09,23,13,19,16.90
2018,09,23,13,20,16.90
2018,09,23,13,21,16.80
2018,09,23,13,22,16.80
2018,09,23,13,23,16.70
2018,09,23,13,24,16.70
2018,09,23,13,25,16.70
2018,09,23,13,26,16.70
2018,09,23,13,27,16.60
2018,09,23,13,28,16.50
2018,09,23,13,29,16.30
2018,09,23,13,30,16.30
2018,09,23,13,31,16.30
2018,09,23,13,32,16.20
2018,09,23,13,33,16.20
2018,09,23,13,34,16.10
2018,09,23,13,35,16.00
2018,09,23,13,36,15.90
2018,09,23,13,37,15.80
2018,09,23,13,38,15.70
2018,09,23,13,39,15.60
2018,09,23,13,40,15.60
2018,09,23,13,41,15.60
2018,09,23,13,42,15.60
2018,09,23,13,43,15.60
2018,09,23,13,44,15.60
2018,09,23,13,45,15.60
2018,09,23,13,46,15.60
2018,09,23,13,47,15.50
2018,09,23,13,48,15.40
2018,09,23,13,49,15.40
2018,09,23,13,50,15.30
2018,09,23,13,51,15.30
2018,09,23,13,52,15.30
2018,09,23,13,53,15.20
2018,09,23,13,54,15.30
2018,09,23,13,55,15.30
2018,09,23,13,56,15.30
2018,09,23,13,57,15.30
2018,09,23,13,58,15.40
2018,09,23,13,59,15.40
2018,09,23,14,00,15.50
2018,09,23,14,01,15.60
2018,09,23,14,02,15.60
2018,09,23,14,03,15.70
2018,09,23,14,04,15.80
2018,09,23,14,05,15.80
2018,09,23,14,06,15.90
2018,09,23,14,07,15.90
2018,09,23,14,08,15.90
2018,09,23,14,09,15.90
2018,09,23,14,10,15.80
2018,09,23,14,11,15.80
2018,09,23,14,12,15.80
2018,09,23,14,13,15.80
2018,09,23,14,14,15.80
2018,09,23,14,15,15.80
2018,09,23,14,16,15.80
2018,09,23,14,17,15.80
2018,09,23,14,18,15.70
2018,09,23,14,19,15.70
2018,09,23,14,20,15.70
2018,09,23,14,21,15.70
2018,09,23,14,22,15.70
2018,09,23,14,23,15.70
2018,09,23,14,24,15.80
2018,09,23,14,25,15.80
2018,09,23,14,26,15.80
2018,09,23,14,27,15.80
2018,09,23,14,28,15.80
2018,09,23,14,29,15.80
2018,09,23,14,30,15.80
2018,09,23,14,31,15.90
2018,09,23,14,32,15.90
2018,09,23,14,33,16.00
2018,09,23,14,34,16.00
2018,09,23,14,35,15.90
2018,09,23,14,36,15.90
2018,09,23,14,37,15.80
2018,09,23,14,38,15.70
2018,09,23,14,39,15.70
2018,09,23,14,40,15.60
2018,09,23,14,41,15.50
2018,09,23,14,42,15.40
2018,09,23,14,43,15.40
2018,09,23,14,44,15.50
2018,09,23,14,45,15.50
2018,09,23,14,46,15.60
2018,09,23,14,47,15.60
2018,09,23,14,48,15.60
2018,09,23,14,49,15.60
2018,09,23,14,50,15.60
2018,09,23,14,51,15.60
2018,09,23,14,52,15.50
2018,09,23,14,53,15.60
2018,09,23,14,54,15.60
2018,09,23,14,55,15.60
2018,09,23,14,56,15.70
2018,09,23,14,57,15.80
2018,09,23,14,58,15.80
2018,09,23,14,59,15.80
2018,09,23,15,00,15.80
2018,09,23,15,01,15.80
2018,09,23,15,02,15.80
2018,09,23,15,03,15.80
2018,09,23,15,04,15.80
2018,09,23,15,05,15.90
2018,09,23,15,06,15.90
2018,09,23,15,07,15.90
2018,09,23,15,08,16.00
2018,09,23,15,09,16.00
2018,09,23,15,10,16.10
2018,09,23,15,11,16.10
2018,09,23,15,12,16.10
2018,09,23,15,13,16.10
2018,09,23,15,14,16.20
2018,09,23,15,15,16.20
2018,09,23,15,16,16.20
2018,09,23,15,17,16.20
2018,09,23,15,18,16.20
2018,09,23,15,19,16.20
2018,09,23,15,20,16.20
2018,09,23,15,21,16.20
2018,09,23,15,22,16.20
2018,09,23,15,23,16.30
2018,09,23,15,24,16.30
2018,09,23,15,25,16.30
2018,09,23,15,26,16.30
2018,09,23,15,27,16.30
2018,09,23,15,28,16.30
2018,09,23,15,29,16.30
2018,09,23,15,30,16.30
2018,09,23,15,31,16.30
2018,09,23,15,32,16.30
2018,09,23,15,33,16.30
2018,09,23,15,34,16.30
2018,09,23,15,35,16.30
2018,09,23,15,36,16.30
2018,09,23,15,37,16.30
2018,09,23,15,38,16.40
2018,09,23,15,39,16.40
2018,09,23,15,40,16.40
2018,09,23,15,41,16.50
2018,09,23,15,42,16.60
2018,09,23,15,43,16.70
2018,09,23,15,44,16.70
2018,09,23,15,45,16.80
2018,09,23,15,46,16.90
2018,09,23,15,47,17.00
2018,09,23,15,48,17.00
2018,09,23,15,49,17.00
2018,09,23,15,50,17.00
2018,09,23,15,51,17.10
2018,09,23,15,52,17.10
2018,09,23,15,53,17.20
2018,09,23,15,54,17.20
2018,09,23,15,55,17.20
2018,09,23,15,56,17.10
2018,09,23,15,57,17.10
2018,09,23,15,58,17.00
2018,09,23,15,59,16.90
2018,09,23,16,00,16.80
2018,09,23,16,01,16.70
2018,09,23,16,02,16.60
2018,09,23,16,03,16.60
2018,09,23,16,04,16.50
2018,09,23,16,05,16.40
2018,09,23,16,06,16.40
2018,09,23,16,07,16.40
2018,09,23,16,08,16.30
2018,09,23,16,09,16.30
2018,09,23,16,10,16.30
2018,09,23,16,11,16.20
2018,09,23,16,12,16.20
2018,09,23,16,13,16.10
2018,09,23,16,14,16.10
2018,09,23,16,15,16.10
2018,09,23,16,16,16.10
2018,09,23,16,17,16.10
2018,09,23,16,18,16.10
2018,09,23,16,19,16.10
2018,09,23,16,20,16.10
2018,09,23,16,21,16.10
2018,09,23,16,22,16.10
2018,09,23,16,23,16.10
2018,09,23,16,24,16.20
2018,09,23,16,25,16.20
2018,09,23,16,26,16.20
2018,09,23,16,27,16.20
2018,09,23,16,28,16.20
2018,09,23,16,29,16.20
2018,09,23,16,30,16.20
2018,09,23,16,31,16.20
2018,09,23,16,32,16.20
2018,09,23,16,33,16.20
2018,09,23,16,34,16.10
2018,09,23,16,35,16.10
2018,09,23,16,36,16.10
2018,09,23,16,37,16.10
2018,09,23,16,38,16.00
2018,09,23,16,39,16.00
2018,09,23,16,40,16.00
2018,09,23,16,41,16.00
2018,09,23,16,42,16.10
2018,09,23,16,43,16.00
2018,09,23,16,44,16.00
2018,09,23,16,45,16.00
2018,09,23,16,46,16.00
2018,09,23,16,47,16.10
2018,09,23,16,48,16.10
2018,09,23,16,49,16.10
2018,09,23,16,50,16.10
2018,09,23,16,51,16.10
2018,09,23,16,52,16.10
2018,09,23,16,53,16.20
2018,09,23,16,54,16.20
2018,09,23,16,55,16.20
2018,09,23,16,56,16.20
2018,09,23,16,57,16.30
2018,09,23,16,58,16.30
2018,09,23,16,59,16.20
2018,09,23,17,00,16.20
2018,09,23,17,01,16.20
2018,09,23,17,02,16.10
2018,09,23,17,03,16.10
2018,09,23,17,04,16.10
2018,09,23,17,05,16.10
2018,09,23,17,06,16.10
2018,09,23,17,07,16.10
2018,09,23,17,08,16.10
2018,09,23,17,09,16.10
2018,09,23,17,10,16.10
2018,09,23,17,11,16.20
2018,09,23,17,12,16.20
2018,09,23,17,13,16.20
2018,09,23,17,14,16.30
2018,09,23,17,15,16.30
2018,09,23,17,16,16.30
2018,09,23,17,17,16.30
2018,09,23,17,18,16.30
2018,09,23,17,19,16.30
2018,09,23,17,20,16.30
2018,09,23,17,21,16.30
2018,09,23,17,22,16.30
2018,09,23,17,23,16.30
2018,09,23,17,24,16.30
2018,09,23,17,25,16.30
2018,09,23,17,26,16.30
2018,09,23,17,27,16.30
2018,09,23,17,28,16.30
2018,09,23,17,29,16.30
2018,09,23,17,30,16.30
2018,09,23,17,31,16.30
2018,09,23,17,32,16.30
2018,09,23,17,33,16.30
2018,09,23,17,34,16.30
2018,09,23,17,35,16.30
2018,09,23,17,36,16.30
2018,09,23,17,37,16.20
2018,09,23,17,38,16.20
2018,09,23,17,39,16.20
2018,09,23,17,40,16.20
2018,09,23,17,41,16.10
2018,09,23,17,42,16.10
2018,09,23,17,43,16.20
2018,09,23,17,44,16.20
2018,09,23,17,45,16.20
2018,09,23,17,46,16.30
2018,09,23,17,47,16.30
2018,09,23,17,48,16.30
2018,09,23,17,49,16.30
2018,09,23,17,50,16.30
2018,09,23,17,51,16.30
2018,09,23,17,52,16.20
2018,09,23,17,53,16.20
2018,09,23,17,54,16.20
2018,09,23,17,55,16.10
2018,09,23,17,56,16.10
2018,09,23,17,57,16.10
2018,09,23,17,58,16.00
2018,09,23,17,59,15.90
2018,09,23,18,00,15.90
2018,09,23,18,01,15.90
2018,09,23,18,02,15.80
2018,09,23,18,03,15.80
2018,09,23,18,04,15.80
2018,09,23,18,05,15.80
2018,09,23,18,06,15.80
2018,09,23,18,07,15.80
2018,09,23,18,08,15.80
2018,09,23,18,09,15.70
2018,09,23,18,10,15.70
2018,09,23,18,11,15.70
2018,09,23,18,12,15.70
2018,09,23,18,13,15.60
2018,09,23,18,14,15.60
2018,09,23,18,15,15.50
2018,09,23,18,16,15.40
2018,09,23,18,17,15.40
2018,09,23,18,18,15.30
2018,09,23,18,19,15.10
2018,09,23,18,20,15.00
2018,09,23,18,21,15.00
2018,09,23,18,22,15.00
2018,09,23,18,23,14.90
2018,09,23,18,24,14.80
2018,09,23,18,25,14.70
2018,09,23,18,26,14.60
2018,09,23,18,27,14.60
2018,09,23,18,28,14.50
2018,09,23,18,29,14.50
2018,09,23,18,30,14.40
2018,09,23,18,31,14.40
2018,09,23,18,32,14.30
2018,09,23,18,33,14.30
2018,09,23,18,34,14.30
2018,09,23,18,35,14.20
2018,09,23,18,36,14.20
2018,09,23,18,37,14.10
2018,09,23,18,38,14.10
2018,09,23,18,39,14.00
2018,09,23,18,40,14.00
2018,09,23,18,41,13.90
2018,09,23,18,42,13.80
2018,09,23,18,43,13.80
2018,09,23,18,44,13.70
2018,09,23,18,45,13.70
2018,09,23,18,46,13.60
2018,09,23,18,47,13.50
2018,09,23,18,48,13.40
2018,09,23,18,49,13.40
2018,09,23,18,50,13.30
2018,09,23,18,51,13.30
2018,09,23,18,52,13.30
2018,09,23,18,53,13.20
2018,09,23,18,54,13.20
2018,09,23,18,55,13.20
2018,09,23,18,56,13.10
2018,09,23,18,57,13.10
2018,09,23,18,58,13.10
2018,09,23,18,59,13.00
2018,09,23,19,00,13.00
2018,09,23,19,01,13.00
2018,09,23,19,02,13.00
2018,09,23,19,03,12.90
2018,09,23,19,04,12.90
2018,09,23,19,05,12.90
2018,09,23,19,06,12.80
2018,09,23,19,07,12.80
2018,09,23,19,08,12.80
2018,09,23,19,09,12.80
2018,09,23,19,10,12.80
2018,09,23,19,11,12.80
2018,09,23,19,12,12.80
2018,09,23,19,13,12.80
2018,09,23,19,14,12.80
2018,09,23,19,15,12.80
2018,09,23,19,16,12.80
2018,09,23,19,17,12.80
2018,09,23,19,18,12.80
2018,09,23,19,19,12.80
2018,09,23,19,20,12.80
2018,09,23,19,21,12.80
2018,09,23,19,22,12.80
2018,09,23,19,23,12.80
2018,09,23,19,24,12.80
2018,09,23,19,25,12.80